Location: �perlecques
(50.8057°N, 2.1521°E)
Time: 21:07:19
(UTC+00:00)

Tiros 1 - Pass Details

Date: 09 August 2021
Orbit: 630 x 663 km, 48.4° (Epoch: 28 September)

Event Time Altitude Azimuth Distance (km) Brightness Sun altitude
Rises 19:47:09 0° 280° (W) 2,987 12.1 -4.2°
Reaches altitude 10° 19:49:40 10° 271° (W) 2,069 10.8 -4.5°
Maximum altitude 19:53:58 34° 207° (SSW) 1,067 8.3 -5.1°
Drops below altitude 10° 19:58:13 10° 143° (SE) 2,043 9.1 -5.7°
Enters shadow 19:59:06 - 139° (SE) 2,359 9.4 -5.8°
Sets 20:00:41 0° 134° (SE) 2,945 - -6.0°
